This demonstration page uses our WeatherBlox Daily Observations layout. Learn more.

Left ArrowRight Arrow

Hourly Observations for July 27, 2018

Temp ( °F °C ) Dew Point ( °F °C ) Humidity (%) Winds ( mph kmh ) Pressure ( in mb ) Visibility ( mi km ) Precip ( " mm )
12:16 am 00:16 Clear 68 20 64 18 88 88 WNW 6 9 30 1016 10 16.0934 N/A
12:37 am 00:37 Clear 66 19 64 18 94 94 WNW 6 9 30 1016 10 16.0934 N/A
12:56 am 00:56 Clear 64 18 64 18 100 100 WNW 5 7 30 1016 10 16.0934 N/A
1:16 am 01:16 Clear 64 18 64 18 100 100 WNW 6 9 30 1016 10 16.0934 N/A
1:37 am 01:37 Clear 61 16 61 16 100 100 W 3 6 30 1016 10 16.0934 N/A
1:56 am 01:56 Clear 61 16 61 16 100 100 WNW 3 6 30 1016 10 16.0934 N/A
2:17 am 02:17 Clear 61 16 61 16 100 100 SW 3 6 30 1016 10 16.0934 N/A
2:36 am 02:36 Clear 61 16 61 16 100 100 W 3 6 30 1016 10 16.0934 N/A
2:56 am 02:56 Clear 61 16 61 16 100 100 N N/A 30 1016 10 16.0934 N/A
3:16 am 03:16 Clear 61 16 61 16 100 100 N N/A 30 1016 10 16.0934 N/A
3:37 am 03:37 Clear 59 15 59 15 100 100 WSW 3 6 30 1016 10 16.0934 N/A
3:56 am 03:56 Clear 59 15 59 15 100 100 N N/A 30 1016 10 16.0934 N/A
4:17 am 04:17 Clear 57 14 57 14 100 100 N N/A 30 1016 10 16.0934 N/A
4:37 am 04:37 Clear 59 15 59 15 100 100 N N/A 30 1016 10 16.0934 N/A
4:56 am 04:56 Clear 57 14 57 14 100 100 SW 3 6 30 1016 10 16.0934 N/A
5:17 am 05:17 Clear 57 14 57 14 100 100 WSW 3 6 30 1016 10 16.0934 N/A
5:36 am 05:36 Clear 57 14 57 14 100 100 WSW 3 6 30 1016 10 16.0934 N/A
5:57 am 05:57 Clear 57 14 57 14 100 100 W 5 7 30 1016 10 16.0934 N/A
6:17 am 06:17 Clear 55 13 55 13 100 100 WSW 5 7 30 1016 10 16.0934 N/A
6:36 am 06:36 Clear 57 14 57 14 100 100 W 6 9 30 1016 10 16.0934 N/A
6:57 am 06:57 Sunny 57 14 57 14 100 100 W 3 6 30 1016 10 16.0934 N/A
7:16 am 07:16 Sunny 57 14 57 14 100 100 W 3 6 30.03 1017 10 16.0934 N/A
7:37 am 07:37 Sunny 59 15 59 15 100 100 W 3 6 30.03 1017 10 16.0934 N/A
7:57 am 07:57 Sunny 61 16 61 16 100 100 W 3 6 30.03 1017 10 16.0934 N/A
8:16 am 08:16 Mostly Cloudy 63 17 63 17 100 100 W 6 9 30.03 1017 10 16.0934 N/A
8:37 am 08:37 Mostly Cloudy 64 18 64 18 100 100 W 5 7 30.03 1017 10 16.0934 N/A
8:56 am 08:56 Sunny 66 19 64 18 94 94 W 3 6 30.03 1017 10 16.0934 N/A
9:16 am 09:16 Partly Cloudy 66 19 64 18 94 94 WNW 5 7 30.06 1018 10 16.0934 N/A
9:36 am 09:36 Sunny 68 20 63 17 83 83 WNW 7 11 30.06 1018 10 16.0934 N/A
9:56 am 09:56 Sunny 70 21 63 17 78 78 WNW 7 11 30.06 1018 10 16.0934 N/A
10:17 am 10:17 Sunny 70 21 63 17 78 78 NW 6 9 30.06 1018 10 16.0934 N/A
10:36 am 10:36 Sunny 70 21 63 17 78 78 NW 7 11 30.06 1018 10 16.0934 N/A
10:57 am 10:57 Sunny 72 22 63 17 73 73 WNW 6 9 30.03 1017 10 16.0934 N/A
11:16 am 11:16 Partly Cloudy 73 23 63 17 69 69 WNW 10 17 30.03 1017 10 16.0934 N/A
11:36 am 11:36 Mostly Cloudy 72 22 63 17 73 73 NW 9 15 30.06 1018 10 16.0934 N/A
11:57 am 11:57 Mostly Cloudy 73 23 63 17 69 69 NW 9 15 30.06 1018 10 16.0934 N/A
12:16 pm 12:16 Mostly Cloudy 72 22 63 17 73 73 NW 10 17 30.06 1018 10 16.0934 N/A
12:37 pm 12:37 Mostly Cloudy 72 22 63 17 73 73 NW 10 17 30.06 1018 10 16.0934 N/A
12:56 pm 12:56 Mostly Cloudy 75 24 63 17 65 65 WNW 9 15 30.06 1018 10 16.0934 N/A
1:17 pm 13:17 Partly Cloudy 75 24 63 17 65 65 WNW 9 15 30.06 1018 10 16.0934 N/A
1:36 pm 13:36 Partly Cloudy 75 24 63 17 65 65 NW 9 15 30.03 1017 10 16.0934 N/A
1:56 pm 13:56 Partly Cloudy 75 24 64 18 69 69 NW 8 13 30.03 1017 10 16.0934 N/A
2:17 pm 14:17 Partly Cloudy 75 24 63 17 65 65 W 6 9 30.03 1017 10 16.0934 N/A
2:36 pm 14:36 Partly Cloudy 75 24 63 17 65 65 NW 6 9 30.03 1017 10 16.0934 N/A
2:57 pm 14:57 Mostly Cloudy 75 24 63 17 65 65 WNW 10 17 30.03 1017 10 16.0934 N/A
3:16 pm 15:16 Partly Cloudy 77 25 64 18 65 65 WNW 10 17 30.03 1017 10 16.0934 N/A
3:37 pm 15:37 Partly Cloudy 75 24 63 17 65 65 WNW 12 19 30.03 1017 10 16.0934 N/A
3:56 pm 15:56 Partly Cloudy 77 25 63 17 61 61 W 14 22 30.03 1017 10 16.0934 N/A
4:17 pm 16:17 Partly Cloudy 77 25 63 17 61 61 WNW 10 17 30.03 1017 10 16.0934 N/A
4:36 pm 16:36 Mostly Cloudy 77 25 63 17 61 61 WNW 13 20 30.03 1017 10 16.0934 N/A
4:56 pm 16:56 Partly Cloudy 75 24 63 17 65 65 NW 10 17 30.03 1017 10 16.0934 N/A
5:16 pm 17:16 Partly Cloudy 77 25 63 17 61 61 WNW 10 17 30.03 1017 10 16.0934 N/A
5:37 pm 17:37 Partly Cloudy 77 25 63 17 61 61 WNW 13 20 30.03 1017 10 16.0934 N/A
5:56 pm 17:56 Mostly Cloudy 75 24 63 17 65 65 NW 8 13 30.03 1017 10 16.0934 N/A
6:17 pm 18:17 Partly Cloudy 77 25 63 17 61 61 W 10 17 30.03 1017 10 16.0934 N/A
6:36 pm 18:36 Partly Cloudy 73 23 63 17 69 69 WNW 10 17 30.03 1017 10 16.0934 N/A
6:57 pm 18:57 Mostly Cloudy 73 23 63 17 69 69 NNW 8 13 30.03 1017 10 16.0934 N/A
7:16 pm 19:16 Mostly Cloudy 73 23 63 17 69 69 NW 9 15 30.03 1017 10 16.0934 N/A
7:36 pm 19:36 Mostly Cloudy 73 23 64 18 74 74 W 7 11 30.03 1017 10 16.0934 N/A
7:57 pm 19:57 Partly Cloudy 73 23 63 17 69 69 NW 8 13 30.06 1018 10 16.0934 N/A
8:16 pm 20:16 Partly Cloudy 73 23 63 17 69 69 NW 3 6 30.06 1018 10 16.0934 N/A
8:37 pm 20:37 Sunny 72 22 61 16 69 69 NW 6 9 30.06 1018 10 16.0934 N/A
8:56 pm 20:56 Sunny 70 21 61 16 73 73 WNW 6 9 30.09 1019 10 16.0934 N/A
9:16 pm 21:16 Clear 68 20 61 16 78 78 WNW 6 9 30.09 1019 10 16.0934 N/A
9:37 pm 21:37 Clear 68 20 61 16 78 78 NW 3 6 30.09 1019 10 16.0934 N/A
9:56 pm 21:56 Clear 63 17 63 17 100 100 N N/A 30.09 1019 10 16.0934 N/A
10:17 pm 22:17 Clear 61 16 61 16 100 100 N N/A 30.09 1019 10 16.0934 N/A
10:36 pm 22:36 Partly Cloudy 63 17 61 16 94 94 W 3 6 30.12 1020 10 16.0934 N/A
10:57 pm 22:57 Mostly Cloudy 63 17 61 16 94 94 N N/A 30.12 1020 10 16.0934 N/A
11:16 pm 23:16 Partly Cloudy 61 16 61 16 100 100 N N/A 30.12 1020 10 16.0934 N/A
11:37 pm 23:37 Clear 63 17 61 16 94 94 N N/A 30.12 1020 10 16.0934 N/A
11:56 pm 23:56 Clear 61 16 61 16 100 100 N N/A 30.12 1020 10 16.0934 N/A

Powered by AerisWeather